Torna al catalogo

STARLINK-32273

AttivoComunicazioniVLEO
NORAD 61956·PAYLOAD·🇺🇸 United States

Lanciato Nov 14, 2024 da Vandenberg Space Force Base

Loading…

Prossimi Passaggi (prossime 24 ore)

TLE

AggiornatoSource: CelesTrak SupGP

Epoca: Sep 15, 2026, 03:41 UTC

1 61956C 24209T   26258.15395833  .00071034  00000+0  20981-2 0  2588
2 61956  53.1597 340.3768 0001192  93.5632 233.6675 15.34364221    15

Traccia STARLINK-32273 in tempo reale con AllMySat

Download on the App Store